EZY787Y EGKK-EGPH

Flight info

Callsign EZY787Y
Flight time 0h 59m
Altitude 36000
Route LAM L10 BPK UN601 RIBEL DCT INPIP
Aircraft A320/M-SDE3FGHIRWY/LB1

Departure

Time 2026-04-23 14:20
Airport London Gatwick Airport (EGKK)

Arrival

Time 2026-04-23 15:19
Airport Edinburgh Airport (EGPH)
Time Latitude Longitude Altitude Speed Heading
2026-04-23 13:56 51.15903 -0.17965 205 ft 0 kts 77°
2026-04-23 14:07 51.15898 -0.18006 209 ft 4 kts 82°
2026-04-23 14:07 51.15896 -0.18048 208 ft 4 kts 91°
2026-04-23 14:08 51.15900 -0.18089 213 ft 4 kts 122°
2026-04-23 14:08 51.15912 -0.18107 215 ft 1 kts 168°
2026-04-23 14:08 51.15915 -0.18108 214 ft 0 kts 168°
2026-04-23 14:11 51.15914 -0.18108 214 ft 1 kts 168°
2026-04-23 14:11 51.15889 -0.18099 215 ft 6 kts 168°
2026-04-23 14:11 51.15827 -0.18078 205 ft 12 kts 168°
2026-04-23 14:11 51.15739 -0.18048 205 ft 10 kts 168°
2026-04-23 14:12 51.15681 -0.18103 205 ft 13 kts 250°
2026-04-23 14:12 51.15634 -0.18236 207 ft 16 kts 191°
2026-04-23 14:12 51.15527 -0.18207 216 ft 8 kts 167°
2026-04-23 14:12 51.15490 -0.18193 206 ft 5 kts 166°
2026-04-23 14:13 51.15440 -0.18167 207 ft 10 kts 165°
2026-04-23 14:13 51.15354 -0.18138 205 ft 15 kts 167°
2026-04-23 14:13 51.15242 -0.18103 205 ft 16 kts 182°
2026-04-23 14:13 51.15190 -0.18262 205 ft 20 kts 260°
2026-04-23 14:14 51.15164 -0.18497 209 ft 24 kts 257°
2026-04-23 14:14 51.15129 -0.18753 214 ft 20 kts 257°
2026-04-23 14:14 51.15096 -0.18992 209 ft 23 kts 257°
2026-04-23 14:14 51.15061 -0.19248 205 ft 26 kts 258°
2026-04-23 14:15 51.15022 -0.19532 207 ft 27 kts 258°
2026-04-23 14:15 51.14979 -0.19843 208 ft 30 kts 258°
2026-04-23 14:15 51.14940 -0.20121 215 ft 22 kts 258°
2026-04-23 14:15 51.14904 -0.20385 204 ft 27 kts 258°
2026-04-23 14:16 51.14862 -0.20690 205 ft 30 kts 257°
2026-04-23 14:16 51.14817 -0.21009 205 ft 30 kts 257°
2026-04-23 14:16 51.14775 -0.21251 205 ft 22 kts 257°
2026-04-23 14:16 51.14741 -0.21396 209 ft 8 kts 218°
2026-04-23 14:17 51.14727 -0.21404 207 ft 0 kts 189°
2026-04-23 14:18 51.14710 -0.21403 205 ft 5 kts 174°
2026-04-23 14:18 51.14666 -0.21370 213 ft 9 kts 139°
2026-04-23 14:18 51.14594 -0.21321 208 ft 14 kts 165°
2026-04-23 14:19 51.14521 -0.21208 207 ft 17 kts 102°
2026-04-23 14:19 51.14538 -0.21039 207 ft 14 kts 77°
2026-04-23 14:19 51.14560 -0.20878 208 ft 19 kts 77°
2026-04-23 14:19 51.14639 -0.20314 209 ft 86 kts 77°
2026-04-23 14:20 51.14810 -0.19082 209 ft 140 kts 78°
2026-04-23 14:20 51.15044 -0.17398 510 ft 162 kts 78°
2026-04-23 14:20 51.15295 -0.15604 1122 ft 170 kts 77°
2026-04-23 14:20 51.15551 -0.13738 1741 ft 179 kts 77°
2026-04-23 14:21 51.15828 -0.11701 2114 ft 197 kts 77°
2026-04-23 14:21 51.16134 -0.09451 2575 ft 214 kts 78°
2026-04-23 14:21 51.16362 -0.07867 2955 ft 229 kts 75°
2026-04-23 14:21 51.17132 -0.05548 3651 ft 245 kts 55°
2026-04-23 14:22 51.18195 -0.03383 4523 ft 250 kts 55°
2026-04-23 14:22 51.19849 -0.00711 5519 ft 263 kts 34°
2026-04-23 14:22 51.21604 0.00203 6412 ft 274 kts
2026-04-23 14:22 51.22905 0.00089 7024 ft 278 kts 356°
2026-04-23 14:23 51.24835 -0.00301 7871 ft 281 kts 356°
2026-04-23 14:23 51.26778 -0.00710 8707 ft 283 kts 356°
2026-04-23 14:23 51.28743 -0.01124 9586 ft 286 kts 356°
2026-04-23 14:23 51.30728 -0.01538 10447 ft 289 kts 356°
2026-04-23 14:24 51.32750 -0.01956 10966 ft 303 kts 356°
2026-04-23 14:24 51.34896 -0.02392 11161 ft 326 kts 356°
2026-04-23 14:24 51.37200 -0.02862 11597 ft 339 kts 356°
2026-04-23 14:24 51.39560 -0.03349 12268 ft 344 kts 356°
2026-04-23 14:25 51.41951 -0.03843 12986 ft 347 kts 356°
2026-04-23 14:25 51.44359 -0.04336 13707 ft 350 kts 356°
2026-04-23 14:25 51.46787 -0.04835 14387 ft 354 kts 356°
2026-04-23 14:25 51.49241 -0.05344 15003 ft 357 kts 356°
2026-04-23 14:26 51.51714 -0.05854 15621 ft 360 kts 356°
2026-04-23 14:26 51.54216 -0.06368 16226 ft 364 kts 356°
2026-04-23 14:26 51.56743 -0.06887 16815 ft 367 kts 356°
2026-04-23 14:26 51.59293 -0.07409 17406 ft 371 kts 355°
2026-04-23 14:27 51.61865 -0.07935 17989 ft 374 kts 355°
2026-04-23 14:27 51.64460 -0.08466 18634 ft 378 kts 355°
2026-04-23 14:27 51.67081 -0.09009 19172 ft 381 kts 355°
2026-04-23 14:27 51.69725 -0.09561 19684 ft 385 kts 355°
2026-04-23 14:28 51.72357 -0.10122 20185 ft 388 kts 353°
2026-04-23 14:28 51.75001 -0.11192 20678 ft 395 kts 342°
2026-04-23 14:28 51.77516 -0.13069 21176 ft 402 kts 332°
2026-04-23 14:28 51.79934 -0.15383 21672 ft 405 kts 331°
2026-04-23 14:29 51.82374 -0.17714 22078 ft 409 kts 331°
2026-04-23 14:29 51.84836 -0.20059 22576 ft 412 kts 331°
2026-04-23 14:29 51.87317 -0.22422 23050 ft 415 kts 331°
2026-04-23 14:29 51.89811 -0.24798 23523 ft 419 kts 330°
2026-04-23 14:30 51.92345 -0.27212 23989 ft 422 kts 330°
2026-04-23 14:30 51.94880 -0.29635 24364 ft 425 kts 330°
2026-04-23 14:30 51.97433 -0.32086 24738 ft 428 kts 330°
2026-04-23 14:30 51.99998 -0.34554 25100 ft 430 kts 330°
2026-04-23 14:31 52.02579 -0.37040 25463 ft 433 kts 330°
2026-04-23 14:31 52.05172 -0.39541 25809 ft 435 kts 330°
2026-04-23 14:31 52.07785 -0.42059 26146 ft 438 kts 330°
2026-04-23 14:31 52.10376 -0.44556 26486 ft 440 kts 330°
2026-04-23 14:32 52.13018 -0.47109 26825 ft 442 kts 330°
2026-04-23 14:32 52.15665 -0.49681 27151 ft 445 kts 330°
2026-04-23 14:32 52.18332 -0.52282 27474 ft 447 kts 330°
2026-04-23 14:32 52.20999 -0.54881 27803 ft 449 kts 330°
2026-04-23 14:33 52.23703 -0.57510 28112 ft 452 kts 330°
2026-04-23 14:33 52.26381 -0.60111 28424 ft 454 kts 330°
2026-04-23 14:33 52.29102 -0.62757 28726 ft 456 kts 329°
2026-04-23 14:33 52.31835 -0.65426 29030 ft 458 kts 329°
2026-04-23 14:34 52.34575 -0.68109 29326 ft 460 kts 329°
2026-04-23 14:34 52.37329 -0.70810 29611 ft 462 kts 329°
2026-04-23 14:34 52.40092 -0.73521 29889 ft 464 kts 329°
2026-04-23 14:34 52.42858 -0.76238 30157 ft 466 kts 329°
2026-04-23 14:35 52.45616 -0.78952 30433 ft 467 kts 329°
2026-04-23 14:35 52.48403 -0.81697 30667 ft 469 kts 329°
2026-04-23 14:35 52.51209 -0.84461 30876 ft 470 kts 329°
2026-04-23 14:35 52.54012 -0.87229 31094 ft 471 kts 329°
2026-04-23 14:36 52.56816 -0.90010 31394 ft 469 kts 329°
2026-04-23 14:36 52.59610 -0.92783 31707 ft 468 kts 329°
2026-04-23 14:36 52.62394 -0.95547 31967 ft 467 kts 329°
2026-04-23 14:36 52.65177 -0.98312 32251 ft 466 kts 329°
2026-04-23 14:37 52.67924 -1.01046 32538 ft 465 kts 329°
2026-04-23 14:37 52.70712 -1.03825 32912 ft 464 kts 329°
2026-04-23 14:37 52.73471 -1.06583 33211 ft 463 kts 329°
2026-04-23 14:37 52.76225 -1.09337 33515 ft 462 kts 329°
2026-04-23 14:38 52.78976 -1.12090 33806 ft 461 kts 329°
2026-04-23 14:38 52.81708 -1.14824 34050 ft 461 kts 329°
2026-04-23 14:38 52.84420 -1.17541 34319 ft 460 kts 329°
2026-04-23 14:38 52.87154 -1.20292 34580 ft 460 kts 329°
2026-04-23 14:39 52.89887 -1.23054 34822 ft 459 kts 329°
2026-04-23 14:39 52.92615 -1.25815 35069 ft 458 kts 329°
2026-04-23 14:39 52.95333 -1.28566 35328 ft 457 kts 329°
2026-04-23 14:39 52.98045 -1.31312 35568 ft 455 kts 329°
2026-04-23 14:40 53.00742 -1.34045 35809 ft 454 kts 329°
2026-04-23 14:40 53.03429 -1.36777 36036 ft 453 kts 329°
2026-04-23 14:40 53.06114 -1.39513 36257 ft 452 kts 328°
2026-04-23 14:40 53.08787 -1.42244 36436 ft 451 kts 329°
2026-04-23 14:41 53.14114 -1.47681 36485 ft 448 kts 329°
2026-04-23 14:41 53.19426 -1.53110 36488 ft 446 kts 329°
2026-04-23 14:42 53.24709 -1.58530 36489 ft 445 kts 328°
2026-04-23 14:42 53.29933 -1.63915 36485 ft 444 kts 328°
2026-04-23 14:43 53.35188 -1.69341 36482 ft 443 kts 328°
2026-04-23 14:43 53.40433 -1.74774 36483 ft 443 kts 328°
2026-04-23 14:44 53.45684 -1.80234 36478 ft 447 kts 328°
2026-04-23 14:44 53.51011 -1.85788 36480 ft 454 kts 328°
2026-04-23 14:45 53.56402 -1.91394 36475 ft 458 kts 328°
2026-04-23 14:45 53.61820 -1.97053 36474 ft 458 kts 328°
2026-04-23 14:46 53.67216 -2.02742 36488 ft 457 kts 328°
2026-04-23 14:46 53.72605 -2.08450 36486 ft 457 kts 328°
2026-04-23 14:47 53.78288 -2.12996 36493 ft 455 kts 339°
2026-04-23 14:47 53.84172 -2.16995 36497 ft 455 kts 338°
2026-04-23 14:48 53.90046 -2.21019 36496 ft 454 kts 338°
2026-04-23 14:48 53.95902 -2.25041 36494 ft 453 kts 338°
2026-04-23 14:49 54.01742 -2.29053 36492 ft 453 kts 338°
2026-04-23 14:49 54.07584 -2.33075 36491 ft 452 kts 338°
2026-04-23 14:50 54.13419 -2.37113 36484 ft 452 kts 338°
2026-04-23 14:50 54.19247 -2.41151 36480 ft 452 kts 338°
2026-04-23 14:51 54.25079 -2.45222 36475 ft 453 kts 338°
2026-04-23 14:51 54.30877 -2.49288 36473 ft 453 kts 338°
2026-04-23 14:52 54.36712 -2.53370 36467 ft 453 kts 338°
2026-04-23 14:52 54.42447 -2.57399 36463 ft 438 kts 338°
2026-04-23 14:53 54.45273 -2.59388 35753 ft 439 kts 338°
2026-04-23 14:53 54.48103 -2.61384 34635 ft 439 kts 338°
2026-04-23 14:53 54.50902 -2.63360 33697 ft 432 kts 338°
2026-04-23 14:53 54.53645 -2.65301 33242 ft 421 kts 338°
2026-04-23 14:54 54.56349 -2.67219 32682 ft 418 kts 338°
2026-04-23 14:54 54.59026 -2.69124 32138 ft 414 kts 338°
2026-04-23 14:54 54.61679 -2.71015 31609 ft 411 kts 338°
2026-04-23 14:54 54.64316 -2.72893 31072 ft 409 kts 338°
2026-04-23 14:55 54.66904 -2.74734 30561 ft 406 kts 338°
2026-04-23 14:55 54.69512 -2.76586 29987 ft 404 kts 338°
2026-04-23 14:55 54.72095 -2.78430 29484 ft 399 kts 338°
2026-04-23 14:55 54.74681 -2.80283 28972 ft 395 kts 338°
2026-04-23 14:56 54.77178 -2.82074 28481 ft 392 kts 338°
2026-04-23 14:56 54.79693 -2.83878 27986 ft 389 kts 338°
2026-04-23 14:56 54.82189 -2.85671 27500 ft 386 kts 338°
2026-04-23 14:56 54.84665 -2.87451 27025 ft 384 kts 338°
2026-04-23 14:57 54.87125 -2.89220 26555 ft 381 kts 338°
2026-04-23 14:57 54.89577 -2.90985 26046 ft 384 kts 338°
2026-04-23 14:57 54.92059 -2.92783 25499 ft 387 kts 338°
2026-04-23 14:57 54.94540 -2.94586 24960 ft 387 kts 337°
2026-04-23 14:58 54.97026 -2.96395 24416 ft 387 kts 337°
2026-04-23 14:58 54.99514 -2.98202 23843 ft 388 kts 337°
2026-04-23 14:58 55.02002 -3.00007 23279 ft 387 kts 337°
2026-04-23 14:58 55.04447 -3.01786 22746 ft 385 kts 337°
2026-04-23 14:59 55.06917 -3.03587 22208 ft 384 kts 337°
2026-04-23 14:59 55.09384 -3.05387 21671 ft 383 kts 337°
2026-04-23 14:59 55.11847 -3.07182 21137 ft 383 kts 337°
2026-04-23 14:59 55.14303 -3.08976 20606 ft 382 kts 337°
2026-04-23 15:00 55.16765 -3.10780 19856 ft 387 kts 337°
2026-04-23 15:00 55.19281 -3.12624 19211 ft 392 kts 337°
2026-04-23 15:00 55.21774 -3.14453 18836 ft 387 kts 337°
2026-04-23 15:00 55.24247 -3.16269 18350 ft 384 kts 337°
2026-04-23 15:01 55.26664 -3.18045 18130 ft 374 kts 336°
2026-04-23 15:01 55.29063 -3.19578 17987 ft 363 kts 346°
2026-04-23 15:01 55.31516 -3.20109 17832 ft 347 kts
2026-04-23 15:01 55.33876 -3.19836 17357 ft 336 kts
2026-04-23 15:02 55.35438 -3.19594 16955 ft 332 kts
2026-04-23 15:02 55.38464 -3.19116 16134 ft 327 kts
2026-04-23 15:02 55.40720 -3.18760 15529 ft 324 kts
2026-04-23 15:02 55.42961 -3.18407 14935 ft 321 kts
2026-04-23 15:03 55.45178 -3.18056 14345 ft 318 kts
2026-04-23 15:03 55.47374 -3.17709 13681 ft 315 kts
2026-04-23 15:03 55.49550 -3.17364 13045 ft 312 kts
2026-04-23 15:03 55.51709 -3.17023 12407 ft 309 kts
2026-04-23 15:04 55.53813 -3.16691 11785 ft 307 kts
2026-04-23 15:04 55.55934 -3.16358 11169 ft 304 kts
2026-04-23 15:04 55.58036 -3.16028 10560 ft 302 kts
2026-04-23 15:04 55.60120 -3.15698 9900 ft 299 kts
2026-04-23 15:05 55.62174 -3.15371 9255 ft 297 kts
2026-04-23 15:05 55.64227 -3.15044 8612 ft 293 kts
2026-04-23 15:05 55.66203 -3.15234 8316 ft 276 kts 343°
2026-04-23 15:05 55.67887 -3.16630 7887 ft 263 kts 320°
2026-04-23 15:06 55.69089 -3.18984 7467 ft 253 kts 297°
2026-04-23 15:06 55.69688 -3.21845 7387 ft 250 kts 277°
2026-04-23 15:06 55.69686 -3.24908 7296 ft 248 kts 257°
2026-04-23 15:06 55.69199 -3.27837 7228 ft 248 kts 251°
2026-04-23 15:07 55.68672 -3.30745 7150 ft 248 kts 251°
2026-04-23 15:07 55.68142 -3.33651 7078 ft 247 kts 251°
2026-04-23 15:07 55.67614 -3.36550 6991 ft 247 kts 251°
2026-04-23 15:07 55.67085 -3.39456 6713 ft 251 kts 251°
2026-04-23 15:08 55.66548 -3.42403 6364 ft 249 kts 251°
2026-04-23 15:08 55.66020 -3.45292 6179 ft 242 kts 250°
2026-04-23 15:08 55.65498 -3.48143 6123 ft 244 kts 250°
2026-04-23 15:09 55.64774 -3.53882 5987 ft 234 kts 272°
2026-04-23 15:09 55.65170 -3.56669 5892 ft 235 kts 294°
2026-04-23 15:09 55.66119 -3.59032 5780 ft 238 kts 315°
2026-04-23 15:09 55.67304 -3.60939 5662 ft 227 kts 316°
2026-04-23 15:10 55.68077 -3.62178 5586 ft 217 kts 315°
2026-04-23 15:10 55.69545 -3.64513 5436 ft 213 kts 317°
2026-04-23 15:10 55.70698 -3.66214 5333 ft 213 kts 318°
2026-04-23 15:10 55.71845 -3.67866 5219 ft 212 kts 319°
2026-04-23 15:11 55.72947 -3.69446 5158 ft 198 kts 319°
2026-04-23 15:11 55.73982 -3.70930 4999 ft 185 kts 318°
2026-04-23 15:11 55.74948 -3.72321 4912 ft 174 kts 318°
2026-04-23 15:11 55.75842 -3.73677 4821 ft 165 kts 314°
2026-04-23 15:12 55.76652 -3.75090 4785 ft 163 kts 312°
2026-04-23 15:12 55.77450 -3.76517 4681 ft 162 kts 314°
2026-04-23 15:12 55.78404 -3.77584 4588 ft 164 kts 338°
2026-04-23 15:12 55.79523 -3.77932 4511 ft 164 kts
2026-04-23 15:13 55.80633 -3.77490 4444 ft 165 kts 25°
2026-04-23 15:13 55.81559 -3.76329 4361 ft 163 kts 49°
2026-04-23 15:13 55.81999 -3.75262 4319 ft 161 kts 62°
2026-04-23 15:13 55.82586 -3.73557 4269 ft 162 kts 61°
2026-04-23 15:14 55.83171 -3.71860 4154 ft 160 kts 61°
2026-04-23 15:14 55.83753 -3.70167 4084 ft 160 kts 61°
2026-04-23 15:14 55.84337 -3.68469 3958 ft 161 kts 61°
2026-04-23 15:14 55.84919 -3.66777 3774 ft 160 kts 61°
2026-04-23 15:15 55.85496 -3.65095 3572 ft 159 kts 61°
2026-04-23 15:15 55.86075 -3.63409 3372 ft 159 kts 61°
2026-04-23 15:15 55.86650 -3.61731 3150 ft 158 kts 61°
2026-04-23 15:15 55.87223 -3.60056 2926 ft 158 kts 61°
2026-04-23 15:16 55.87796 -3.58384 2741 ft 160 kts 62°
2026-04-23 15:16 55.88377 -3.56687 2495 ft 158 kts 61°
2026-04-23 15:16 55.88939 -3.55044 2293 ft 154 kts 60°
2026-04-23 15:16 55.89490 -3.53432 2078 ft 151 kts 60°
2026-04-23 15:17 55.90034 -3.51839 1875 ft 150 kts 60°
2026-04-23 15:17 55.90572 -3.50261 1669 ft 148 kts 60°
2026-04-23 15:17 55.91106 -3.48697 1474 ft 147 kts 60°
2026-04-23 15:17 55.91632 -3.47152 1265 ft 145 kts 60°
2026-04-23 15:18 55.92149 -3.45634 1063 ft 142 kts 59°
2026-04-23 15:18 55.92659 -3.44138 851 ft 140 kts 59°
2026-04-23 15:18 55.93160 -3.42665 677 ft 138 kts 59°
2026-04-23 15:18 55.93656 -3.41204 486 ft 137 kts 58°
2026-04-23 15:19 55.94146 -3.39756 281 ft 136 kts 58°
2026-04-23 15:19 55.94637 -3.38313 128 ft 135 kts 58°
2026-04-23 15:19 55.95049 -3.37100 112 ft 89 kts 59°
2026-04-23 15:19 55.95256 -3.36485 109 ft 16 kts 71°
2026-04-23 15:20 55.95201 -3.36359 108 ft 11 kts 149°
2026-04-23 15:20 55.95182 -3.36340 109 ft 0 kts 148°
2026-04-23 15:21 55.95177 -3.36334 109 ft 4 kts 148°
2026-04-23 15:21 55.95141 -3.36257 109 ft 13 kts 111°
2026-04-23 15:21 55.95103 -3.36053 109 ft 21 kts 108°
2026-04-23 15:21 55.95042 -3.35852 107 ft 15 kts 146°
2026-04-23 15:22 55.94997 -3.35848 108 ft 2 kts 194°
2026-04-23 15:22 55.94973 -3.35896 108 ft 9 kts 255°
2026-04-23 15:22 55.94955 -3.36015 108 ft 3 kts 254°
2026-04-23 15:22 55.94953 -3.36027 107 ft 0 kts 254°